Tracking 19219 objects as of 20-Jul-2018
HD Live streaming from Space Station
objects crossing your sky now

USA 7

Track USA 7 now!
USA 7 is classified as:


NORAD ID: 15453
Int'l Code: 1984-129A
Perigee: 36,180.8 km
Apogee: 36,213.8 km
Inclination: 15.7 °
Period: 1,456.8 minutes
Semi major axis: 42568 km
RCS: Unknown
Launch date: December 22, 1984
Source: United States (US)
Launch site: AIR FORCE EASTERN TEST RANGE (AFETR)
aabbcc
Your satellite tracking list
Your tracking list is empty




NASA's NSSDC Master Catalog

Two Line Element Set (TLE):
1 15453U 84129A   18143.55579289 0.00000000  00000-0  00000-0 0    02
2 15453  15.6716 347.2798 0003876 329.7597  30.2299  0.98849148    08
Source of the keplerian elements: McCants